Time,TemperatureF,DewpointF,PressureIn,WindDirection,WindDirectionDegrees,WindSpeedMPH,WindSpeedGustMPH,Humidity,HourlyPrecipIn,Conditions,Clouds,dailyrainin,SoftwareType,DateUTC
2013-04-30 00:02:00,56.0,52.0,-100.00,SE,140,0.0,2.0,86,0.00,,,-99.99,,2013-04-30 04:02:00,
2013-04-30 00:12:00,56.0,52.0,-100.00,SE,125,1.0,2.0,86,0.00,,,-99.99,,2013-04-30 04:12:00,
2013-04-30 00:22:00,56.0,52.0,-100.00,SSE,160,0.0,3.0,87,0.00,,,-99.99,,2013-04-30 04:22:00,
2013-04-30 00:32:00,56.0,52.0,-100.00,SE,130,1.0,3.0,87,0.00,,,-99.99,,2013-04-30 04:32:00,
2013-04-30 00:42:00,56.0,52.0,-100.00,SE,135,0.0,3.0,87,0.00,,,-99.99,,2013-04-30 04:42:00,
2013-04-30 00:52:00,56.0,52.0,-100.00,SE,135,1.0,3.0,87,0.00,,,-99.99,,2013-04-30 04:52:00,
2013-04-30 01:02:00,55.0,52.0,-100.00,SE,135,1.0,2.0,88,0.00,,,-99.99,,2013-04-30 05:02:00,
2013-04-30 01:12:00,55.0,52.0,-100.00,ESE,120,2.0,3.0,88,0.00,,,-99.99,,2013-04-30 05:12:00,
2013-04-30 01:22:00,55.0,52.0,-100.00,SE,145,1.0,6.0,87,0.00,,,-99.99,,2013-04-30 05:22:00,
2013-04-30 01:31:00,55.0,52.0,-100.00,SE,145,2.0,4.0,87,0.00,,,-99.99,,2013-04-30 05:31:00,
2013-04-30 01:42:00,55.0,51.0,-100.00,ESE,115,1.0,3.0,87,0.00,,,-99.99,,2013-04-30 05:42:00,
2013-04-30 01:51:00,55.0,51.0,-100.00,SE,145,1.0,3.0,88,0.00,,,-99.99,,2013-04-30 05:51:00,
2013-04-30 02:02:00,55.0,51.0,-100.00,SSE,150,1.0,4.0,88,0.00,,,-99.99,,2013-04-30 06:02:00,
2013-04-30 02:12:00,55.0,51.0,-100.00,ESE,120,1.0,3.0,88,0.00,,,-99.99,,2013-04-30 06:12:00,
2013-04-30 02:21:00,55.0,51.0,-100.00,ESE,110,1.0,4.0,88,0.00,,,-99.99,,2013-04-30 06:21:00,
2013-04-30 02:32:00,54.0,51.0,-100.00,SE,145,2.0,4.0,88,0.00,,,-99.99,,2013-04-30 06:32:00,
2013-04-30 02:41:00,54.0,51.0,-100.00,ESE,110,2.0,4.0,88,0.00,,,-99.99,,2013-04-30 06:41:00,
2013-04-30 02:52:00,54.0,51.0,-100.00,SE,135,1.0,6.0,89,0.00,,,-99.99,,2013-04-30 06:52:00,
2013-04-30 03:01:00,54.0,51.0,-100.00,SE,125,3.0,6.0,89,0.00,,,-99.99,,2013-04-30 07:01:00,
2013-04-30 03:11:00,54.0,51.0,-100.00,SE,135,1.0,7.0,90,0.00,,,-99.99,,2013-04-30 07:11:00,
2013-04-30 03:21:00,54.0,51.0,-100.00,ESE,110,1.0,5.0,90,0.00,,,-99.99,,2013-04-30 07:21:00,
2013-04-30 03:32:00,54.0,51.0,-100.00,SE,130,1.0,4.0,90,0.00,,,-99.99,,2013-04-30 07:32:00,
2013-04-30 03:42:00,54.0,51.0,-100.00,SE,140,1.0,4.0,90,0.00,,,-99.99,,2013-04-30 07:42:00,
2013-04-30 03:52:00,54.0,51.0,-100.00,SE,125,2.0,5.0,91,0.00,,,-99.99,,2013-04-30 07:52:00,
2013-04-30 04:02:00,54.0,51.0,-100.00,SE,130,1.0,5.0,91,0.00,,,-99.99,,2013-04-30 08:02:00,
2013-04-30 04:11:00,54.0,51.0,-100.00,SSE,155,1.0,4.0,91,0.00,,,-99.99,,2013-04-30 08:11:00,
2013-04-30 04:22:00,53.0,51.0,-100.00,SE,140,1.0,3.0,92,0.00,,,-99.99,,2013-04-30 08:22:00,
2013-04-30 04:32:00,53.0,51.0,-100.00,SE,130,1.0,3.0,92,0.00,,,-99.99,,2013-04-30 08:32:00,
2013-04-30 04:42:00,53.0,51.0,-100.00,SSE,150,1.0,5.0,92,0.00,,,-99.99,,2013-04-30 08:42:00,
2013-04-30 04:52:00,53.0,51.0,-100.00,ESE,120,1.0,4.0,92,0.00,,,-99.99,,2013-04-30 08:52:00,
2013-04-30 05:01:00,53.0,51.0,-100.00,SSE,155,1.0,3.0,92,0.00,,,-99.99,,2013-04-30 09:01:00,
2013-04-30 05:11:00,53.0,51.0,-100.00,ESE,115,2.0,5.0,92,0.00,,,-99.99,,2013-04-30 09:11:00,
2013-04-30 05:22:00,53.0,51.0,-100.00,ESE,105,1.0,6.0,92,0.00,,,-99.99,,2013-04-30 09:22:00,
2013-04-30 05:33:00,53.0,51.0,-100.00,SE,140,1.0,4.0,92,0.00,,,-99.99,,2013-04-30 09:33:00,
2013-04-30 05:43:00,53.0,51.0,-100.00,SE,135,2.0,6.0,93,0.00,,,-99.99,,2013-04-30 09:43:00,
2013-04-30 05:52:00,53.0,51.0,-100.00,SE,135,1.0,4.0,93,0.00,,,-99.99,,2013-04-30 09:52:00,
2013-04-30 06:03:00,53.0,51.0,-100.00,SE,135,3.0,6.0,93,0.00,,,-99.99,,2013-04-30 10:03:00,
2013-04-30 06:12:00,53.0,51.0,-100.00,ESE,120,3.0,6.0,93,0.00,,,-99.99,,2013-04-30 10:12:00,
2013-04-30 06:22:00,53.0,51.0,-100.00,SE,135,4.0,7.0,93,0.00,,,-99.99,,2013-04-30 10:22:00,
2013-04-30 06:32:00,53.0,51.0,-100.00,SE,130,2.0,7.0,93,0.00,,,-99.99,,2013-04-30 10:32:00,
2013-04-30 06:41:00,53.0,51.0,-100.00,SE,125,2.0,7.0,93,0.00,,,-99.99,,2013-04-30 10:41:00,
2013-04-30 06:52:00,53.0,51.0,-100.00,SE,130,2.0,6.0,93,0.00,,,-99.99,,2013-04-30 10:52:00,
2013-04-30 07:02:00,53.0,51.0,-100.00,SE,135,1.0,6.0,93,0.00,,,-99.99,,2013-04-30 11:02:00,
2013-04-30 07:11:00,53.0,51.0,-100.00,SE,135,3.0,6.0,93,0.00,,,-99.99,,2013-04-30 11:11:00,
2013-04-30 07:21:00,53.0,51.0,-100.00,SE,135,3.0,6.0,92,0.00,,,-99.99,,2013-04-30 11:21:00,
2013-04-30 07:32:00,53.0,51.0,-100.00,SSE,155,2.0,7.0,91,0.00,,,-99.99,,2013-04-30 11:32:00,
2013-04-30 07:42:00,54.0,51.0,-100.00,SSE,155,2.0,5.0,90,0.00,,,-99.99,,2013-04-30 11:42:00,
2013-04-30 07:51:00,54.0,51.0,-100.00,SSE,160,3.0,6.0,89,0.00,,,-99.99,,2013-04-30 11:51:00,
2013-04-30 08:01:00,55.0,51.0,-100.00,SE,145,4.0,8.0,88,0.00,,,-99.99,,2013-04-30 12:01:00,
2013-04-30 08:11:00,55.0,52.0,-100.00,SE,145,5.0,9.0,87,0.00,,,-99.99,,2013-04-30 12:11:00,
2013-04-30 08:21:00,56.0,52.0,-100.00,SSE,155,5.0,9.0,85,0.00,,,-99.99,,2013-04-30 12:21:00,
2013-04-30 08:31:00,57.0,53.0,-100.00,SSE,160,3.0,11.0,86,0.00,,,-99.99,,2013-04-30 12:31:00,
2013-04-30 08:41:00,58.0,53.0,-100.00,South,175,5.0,10.0,84,0.00,,,-99.99,,2013-04-30 12:41:00,
2013-04-30 08:51:00,58.0,53.0,-100.00,SSE,160,4.0,10.0,83,0.00,,,-99.99,,2013-04-30 12:51:00,
2013-04-30 09:01:00,59.0,54.0,-100.00,South,175,6.0,11.0,82,0.00,,,-99.99,,2013-04-30 13:01:00,
2013-04-30 09:11:00,60.0,54.0,-100.00,South,175,6.0,11.0,81,0.00,,,-99.99,,2013-04-30 13:11:00,
2013-04-30 09:21:00,60.0,55.0,-100.00,SE,140,5.0,12.0,81,0.00,,,-99.99,,2013-04-30 13:21:00,
2013-04-30 09:31:00,61.0,54.0,-100.00,SE,140,6.0,12.0,78,0.00,,,-99.99,,2013-04-30 13:31:00,
2013-04-30 09:41:00,62.0,55.0,-100.00,SSE,150,4.0,11.0,77,0.00,,,-99.99,,2013-04-30 13:41:00,
2013-04-30 09:51:00,62.0,55.0,-100.00,SSE,150,6.0,12.0,77,0.00,,,-99.99,,2013-04-30 13:51:00,
2013-04-30 10:02:00,62.0,55.0,-100.00,SSE,150,9.0,12.0,77,0.00,,,-99.99,,2013-04-30 14:02:00,
2013-04-30 10:11:00,63.0,55.0,-100.00,SE,145,6.0,17.0,75,0.00,,,-99.99,,2013-04-30 14:11:00,
2013-04-30 10:21:00,64.0,55.0,-100.00,SSE,155,8.0,16.0,74,0.00,,,-99.99,,2013-04-30 14:21:00,
2013-04-30 10:31:00,64.0,55.0,-100.00,SE,145,9.0,15.0,73,0.00,,,-99.99,,2013-04-30 14:31:00,
2013-04-30 10:41:00,64.0,55.0,-100.00,SSE,155,9.0,16.0,72,0.00,,,-99.99,,2013-04-30 14:41:00,
2013-04-30 10:52:00,64.0,54.0,-100.00,SSE,165,13.0,19.0,68,0.00,,,-99.99,,2013-04-30 14:52:00,
2013-04-30 11:01:00,65.0,54.0,-100.00,SSE,155,9.0,15.0,65,0.00,,,-99.99,,2013-04-30 15:01:00,
2013-04-30 11:11:00,65.0,54.0,-100.00,SSE,165,9.0,19.0,66,0.00,,,-99.99,,2013-04-30 15:11:00,
2013-04-30 11:21:00,66.0,54.0,-100.00,SSE,165,7.0,14.0,64,0.00,,,-99.99,,2013-04-30 15:21:00,
2013-04-30 11:32:00,67.0,55.0,-100.00,SSE,165,7.0,17.0,65,0.00,,,-99.99,,2013-04-30 15:32:00,
2013-04-30 11:42:00,67.0,55.0,-100.00,SSE,160,8.0,16.0,64,0.00,,,-99.99,,2013-04-30 15:42:00,
2013-04-30 11:52:00,68.0,55.0,-100.00,SE,135,7.0,15.0,62,0.00,,,-99.99,,2013-04-30 15:52:00,
2013-04-30 12:02:00,68.0,55.0,-100.00,SSE,160,7.0,15.0,62,0.00,,,-99.99,,2013-04-30 16:02:00,
2013-04-30 12:12:00,69.0,55.0,-100.00,SSE,155,6.0,12.0,62,0.00,,,-99.99,,2013-04-30 16:12:00,
2013-04-30 12:23:00,69.0,55.0,-100.00,SSE,165,7.0,17.0,61,0.00,,,-99.99,,2013-04-30 16:23:00,
2013-04-30 12:33:00,69.0,55.0,-100.00,SSE,165,6.0,12.0,60,0.00,,,-99.99,,2013-04-30 16:33:00,
2013-04-30 12:42:00,69.0,55.0,-100.00,SSE,160,7.0,14.0,60,0.00,,,-99.99,,2013-04-30 16:42:00,
2013-04-30 12:52:00,69.0,55.0,-100.00,ESE,120,9.0,14.0,59,0.00,,,-99.99,,2013-04-30 16:52:00,
2013-04-30 13:02:00,70.0,54.0,-100.00,ESE,120,4.0,12.0,56,0.00,,,-99.99,,2013-04-30 17:02:00,
2013-04-30 13:12:00,70.0,55.0,-100.00,ESE,110,7.0,14.0,57,0.00,,,-99.99,,2013-04-30 17:12:00,
2013-04-30 13:22:00,71.0,56.0,-100.00,SE,145,7.0,14.0,58,0.00,,,-99.99,,2013-04-30 17:22:00,
2013-04-30 13:32:00,71.0,55.0,-100.00,ESE,110,7.0,14.0,57,0.00,,,-99.99,,2013-04-30 17:32:00,
2013-04-30 13:42:00,72.0,56.0,-100.00,SE,130,9.0,14.0,59,0.00,,,-99.99,,2013-04-30 17:42:00,
2013-04-30 13:52:00,71.0,52.0,-100.00,South,170,7.0,13.0,50,0.00,,,-99.99,,2013-04-30 17:52:00,
2013-04-30 14:01:00,72.0,54.0,-100.00,SE,140,5.0,14.0,52,0.00,,,-99.99,,2013-04-30 18:01:00,
2013-04-30 14:11:00,73.0,52.0,-100.00,SE,130,7.0,14.0,48,0.00,,,-99.99,,2013-04-30 18:11:00,
2013-04-30 14:22:00,73.0,55.0,-100.00,ESE,110,6.0,12.0,51,0.00,,,-99.99,,2013-04-30 18:22:00,
2013-04-30 14:32:00,74.0,53.0,-100.00,SE,130,6.0,14.0,48,0.00,,,-99.99,,2013-04-30 18:32:00,
2013-04-30 14:42:00,74.0,52.0,-100.00,SE,145,6.0,12.0,46,0.00,,,-99.99,,2013-04-30 18:42:00,
2013-04-30 14:51:00,74.0,51.0,-100.00,ESE,115,4.0,13.0,44,0.00,,,-99.99,,2013-04-30 18:51:00,
2013-04-30 15:01:00,75.0,53.0,-100.00,East,100,4.0,11.0,47,0.00,,,-99.99,,2013-04-30 19:01:00,
2013-04-30 15:11:00,74.0,52.0,-100.00,SSE,160,4.0,11.0,45,0.00,,,-99.99,,2013-04-30 19:11:00,
2013-04-30 15:22:00,75.0,51.0,-100.00,SE,130,4.0,11.0,43,0.00,,,-99.99,,2013-04-30 19:22:00,
2013-04-30 15:32:00,75.0,51.0,-100.00,ESE,120,4.0,11.0,43,0.00,,,-99.99,,2013-04-30 19:32:00,
2013-04-30 15:42:00,76.0,51.0,-100.00,ESE,120,4.0,12.0,42,0.00,,,-99.99,,2013-04-30 19:42:00,
2013-04-30 15:52:00,75.0,50.0,-100.00,ESE,115,7.0,14.0,41,0.00,,,-99.99,,2013-04-30 19:52:00,
2013-04-30 16:02:00,76.0,52.0,-100.00,East,95,7.0,14.0,43,0.00,,,-99.99,,2013-04-30 20:02:00,
2013-04-30 16:11:00,76.0,53.0,-100.00,SE,130,5.0,14.0,43,0.00,,,-99.99,,2013-04-30 20:11:00,
2013-04-30 16:21:00,76.0,53.0,-100.00,SE,125,5.0,11.0,43,0.00,,,-99.99,,2013-04-30 20:21:00,
2013-04-30 16:32:00,77.0,51.0,-100.00,SSE,155,5.0,15.0,40,0.00,,,-99.99,,2013-04-30 20:32:00,
2013-04-30 16:42:00,78.0,52.0,-100.00,SE,125,6.0,12.0,40,0.00,,,-99.99,,2013-04-30 20:42:00,
2013-04-30 16:52:00,78.0,53.0,-100.00,SSE,155,5.0,10.0,42,0.00,,,-99.99,,2013-04-30 20:52:00,
2013-04-30 17:02:00,78.0,50.0,-100.00,East,100,7.0,12.0,38,0.00,,,-99.99,,2013-04-30 21:02:00,
2013-04-30 17:11:00,78.0,51.0,-100.00,ESE,110,8.0,12.0,37,0.00,,,-99.99,,2013-04-30 21:11:00,
2013-04-30 17:22:00,78.0,51.0,-100.00,SE,135,6.0,12.0,38,0.00,,,-99.99,,2013-04-30 21:22:00,
2013-04-30 17:32:00,77.0,51.0,-100.00,South,175,7.0,12.0,40,0.00,,,-99.99,,2013-04-30 21:32:00,
2013-04-30 17:42:00,76.0,52.0,-100.00,SSE,155,9.0,17.0,42,0.00,,,-99.99,,2013-04-30 21:42:00,
2013-04-30 17:52:00,77.0,52.0,-100.00,ESE,120,7.0,14.0,42,0.00,,,-99.99,,2013-04-30 21:52:00,
2013-04-30 18:02:00,76.0,53.0,-100.00,ESE,110,8.0,16.0,43,0.00,,,-99.99,,2013-04-30 22:02:00,
2013-04-30 18:12:00,76.0,53.0,-100.00,SSE,160,6.0,11.0,43,0.00,,,-99.99,,2013-04-30 22:12:00,
2013-04-30 18:23:00,77.0,54.0,-100.00,ESE,120,7.0,12.0,45,0.00,,,-99.99,,2013-04-30 22:23:00,
2013-04-30 18:33:00,76.0,52.0,-100.00,SE,140,7.0,12.0,42,0.00,,,-99.99,,2013-04-30 22:33:00,
2013-04-30 18:42:00,76.0,52.0,-100.00,SE,125,6.0,11.0,43,0.00,,,-99.99,,2013-04-30 22:42:00,
2013-04-30 18:52:00,76.0,52.0,-100.00,SSE,155,7.0,11.0,44,0.00,,,-99.99,,2013-04-30 22:52:00,
2013-04-30 19:02:00,76.0,52.0,-100.00,ESE,120,9.0,14.0,43,0.00,,,-99.99,,2013-04-30 23:02:00,
2013-04-30 19:12:00,76.0,53.0,-100.00,ESE,120,4.0,13.0,44,0.00,,,-99.99,,2013-04-30 23:12:00,
2013-04-30 19:22:00,76.0,53.0,-100.00,SE,145,6.0,14.0,45,0.00,,,-99.99,,2013-04-30 23:22:00,
2013-04-30 19:32:00,75.0,52.0,-100.00,SE,145,7.0,12.0,44,0.00,,,-99.99,,2013-04-30 23:32:00,
2013-04-30 19:42:00,75.0,53.0,-100.00,ESE,120,4.0,11.0,46,0.00,,,-99.99,,2013-04-30 23:42:00,
2013-04-30 19:52:00,74.0,53.0,-100.00,SE,130,6.0,11.0,47,0.00,,,-99.99,,2013-04-30 23:52:00,
2013-04-30 20:02:00,73.0,53.0,-100.00,SSE,150,4.0,9.0,48,0.00,,,-99.99,,2013-05-01 00:02:00,
2013-04-30 20:11:00,73.0,53.0,-100.00,ESE,120,2.0,7.0,49,0.00,,,-99.99,,2013-05-01 00:11:00,
2013-04-30 20:22:00,73.0,53.0,-100.00,SE,125,4.0,7.0,49,0.00,,,-99.99,,2013-05-01 00:22:00,
2013-04-30 20:32:00,72.0,53.0,-100.00,SE,125,3.0,7.0,51,0.00,,,-99.99,,2013-05-01 00:32:00,
2013-04-30 20:42:00,71.0,53.0,-100.00,SE,135,2.0,6.0,52,0.00,,,-99.99,,2013-05-01 00:42:00,
2013-04-30 20:51:00,71.0,53.0,-100.00,ESE,120,2.0,6.0,53,0.00,,,-99.99,,2013-05-01 00:51:00,
2013-04-30 21:01:00,70.0,54.0,-100.00,ESE,120,2.0,6.0,55,0.00,,,-99.99,,2013-05-01 01:01:00,
2013-04-30 21:11:00,70.0,54.0,-100.00,SE,130,2.0,5.0,56,0.00,,,-99.99,,2013-05-01 01:11:00,
2013-04-30 21:21:00,69.0,54.0,-100.00,SE,125,3.0,6.0,57,0.00,,,-99.99,,2013-05-01 01:21:00,
2013-04-30 21:32:00,69.0,54.0,-100.00,SE,125,1.0,5.0,59,0.00,,,-99.99,,2013-05-01 01:32:00,
2013-04-30 21:42:00,68.0,54.0,-100.00,ESE,110,1.0,4.0,60,0.00,,,-99.99,,2013-05-01 01:42:00,
2013-04-30 21:52:00,68.0,54.0,-100.00,SE,130,1.0,4.0,61,0.00,,,-99.99,,2013-05-01 01:52:00,
2013-04-30 22:02:00,67.0,54.0,-100.00,SE,130,2.0,6.0,62,0.00,,,-99.99,,2013-05-01 02:02:00,
2013-04-30 22:11:00,67.0,55.0,-100.00,SE,135,3.0,6.0,63,0.00,,,-99.99,,2013-05-01 02:11:00,
2013-04-30 22:21:00,67.0,55.0,-100.00,SE,125,2.0,6.0,63,0.00,,,-99.99,,2013-05-01 02:21:00,
2013-04-30 22:32:00,67.0,55.0,-100.00,SE,135,2.0,6.0,64,0.00,,,-99.99,,2013-05-01 02:32:00,
2013-04-30 22:42:00,66.0,55.0,-100.00,SE,130,2.0,4.0,65,0.00,,,-99.99,,2013-05-01 02:42:00,
2013-04-30 22:52:00,66.0,55.0,-100.00,SE,125,2.0,4.0,66,0.00,,,-99.99,,2013-05-01 02:52:00,
2013-04-30 23:02:00,66.0,54.0,-100.00,SE,140,1.0,4.0,66,0.00,,,-99.99,,2013-05-01 03:02:00,
2013-04-30 23:11:00,65.0,54.0,-100.00,ESE,120,1.0,4.0,67,0.00,,,-99.99,,2013-05-01 03:11:00,
2013-04-30 23:21:00,65.0,54.0,-100.00,SSE,150,0.0,2.0,68,0.00,,,-99.99,,2013-05-01 03:21:00,
2013-04-30 23:33:00,65.0,54.0,-100.00,SE,145,1.0,3.0,67,0.00,,,-99.99,,2013-05-01 03:33:00,
2013-04-30 23:43:00,65.0,54.0,-100.00,SSE,155,1.0,4.0,67,0.00,,,-99.99,,2013-05-01 03:43:00,
2013-04-30 23:53:00,64.0,54.0,-100.00,SSE,150,1.0,4.0,69,0.00,,,-99.99,,2013-05-01 03:53:00,